Weather History for Beatrice, NE

Change the Weather History Date:

Friday, January 30, 2009

  Actual Average Record
Temperature  
Mean Temperature 32 °F -  
Max Temperature 44 °F 36 °F 68 °F (2012)
Min Temperature 21 °F 16 °F -11 °F (1966)
Degree Days  
Heating Degree Days 32    
Moisture  
Dew Point 25 °F    
Average Humidity 77    
Maximum Humidity 87    
Minimum Humidity 61    
Precipitation  
Precipitation 0.00 in - - ()
Sea Level Pressure  
Sea Level Pressure 30.11 in    
Wind  
Wind Speed 5 mph (WNW)    
Max Wind Speed 18 mph    
Max Gust Speed 28 mph    
Visibility 10 miles    
Events      
Averages and records for this station are not official NWS values.
T = Trace of Precipitation, MM = Missing Value Source: NWS Daily Summary

Daily Weather History Graph

Daily Weather History Graph

Search for Another Location

Airport:

Trip Planner

Search our weather history database for the weather conditions in past years. The results will help you decide how hot, cold, wet, or windy it might be!

Date:

Astronomy

Jan. 30, 2009 Rise Set
Actual Time 7:37 AM CST 5:43 PM CST
Civil Twilight 7:08 AM CST 6:12 PM CST
Nautical Twilight 6:36 AM CST 6:45 PM CST
Astronomical Twilight 6:04 AM CST 7:17 PM CST
Moon 9:28 AM CST (1/30) 10:26 PM CST (1/30)
Length of Visible Light 11h 03m
Length of Day
10h 05m
Waxing Crescent, 18% of the Moon is Illuminated
Jan 30
Waxing Crescent
Feb 2
First Quarter
Feb 9
Full
Feb 16
Last Quarter
Feb 24
New

Hourly Weather History & Observations

Time (CST) Temp. Windchill Dew Point Humidity Pressure Visibility Wind Dir Wind Speed Gust Speed Precip Events Conditions
12:10 AM 26.6 °F 21.2 °F 21.2 °F 80% 30.15 in 10.0 mi West 4.6 mph - N/A   Scattered Clouds
12:30 AM 23.0 °F 15.8 °F 19.4 °F 86% 30.15 in 10.0 mi WSW 5.8 mph - N/A   Scattered Clouds
12:50 AM 24.8 °F 17.9 °F 21.2 °F 86% 30.14 in 10.0 mi WSW 5.8 mph - N/A   Clear
1:10 AM 24.8 °F 17.9 °F 19.4 °F 80% 30.13 in 10.0 mi WSW 5.8 mph - N/A   Scattered Clouds
1:30 AM 24.8 °F 19.1 °F 19.4 °F 80% 30.12 in 10.0 mi SW 4.6 mph - N/A   Clear
1:50 AM 23.0 °F 18.4 °F 19.4 °F 86% 30.11 in 10.0 mi WSW 3.5 mph - N/A   Clear
2:10 AM 24.8 °F 20.5 °F 21.2 °F 86% 30.11 in 10.0 mi SW 3.5 mph - N/A   Clear
2:30 AM 26.6 °F - 21.2 °F 80% 30.10 in 10.0 mi Calm Calm - N/A   Clear
2:50 AM 23.0 °F - 19.4 °F 86% 30.10 in 10.0 mi Calm Calm - N/A   Clear
3:10 AM 23.0 °F 17.0 °F 19.4 °F 86% 30.11 in 10.0 mi West 4.6 mph - N/A   Clear
3:30 AM 21.2 °F 16.4 °F 17.6 °F 86% 30.10 in 10.0 mi West 3.5 mph - N/A   Scattered Clouds
3:50 AM 23.0 °F - 19.4 °F 86% 30.09 in 10.0 mi Calm Calm - N/A   Mostly Cloudy
4:10 AM 24.8 °F - 21.2 °F 86% 30.09 in 10.0 mi Calm Calm - N/A   Mostly Cloudy
4:30 AM 26.6 °F - 21.2 °F 80% 30.08 in 10.0 mi Calm Calm - N/A   Mostly Cloudy
4:50 AM 24.8 °F - 19.4 °F 80% 30.08 in 10.0 mi Calm Calm - N/A   Scattered Clouds
5:10 AM 24.8 °F - 19.4 °F 80% 30.07 in 10.0 mi Calm Calm - N/A   Clear
5:30 AM 23.0 °F 17.0 °F 19.4 °F 86% 30.07 in 10.0 mi South 4.6 mph - N/A   Scattered Clouds
5:50 AM 26.6 °F 21.2 °F 21.2 °F 80% 30.06 in 10.0 mi South 4.6 mph - N/A   Mostly Cloudy
6:10 AM 23.0 °F 17.0 °F 19.4 °F 86% 30.06 in 10.0 mi SSW 4.6 mph - N/A   Scattered Clouds
6:30 AM 23.0 °F - 19.4 °F 86% 30.07 in 10.0 mi Calm Calm - N/A   Mostly Cloudy
6:50 AM 24.8 °F - 19.4 °F 80% 30.07 in 10.0 mi Calm Calm - N/A   Overcast
7:10 AM 24.8 °F - 21.2 °F 86% 30.07 in 10.0 mi Calm Calm - N/A   Overcast
7:30 AM 26.6 °F - 19.4 °F 74% 30.07 in 10.0 mi Calm Calm - N/A   Overcast
7:50 AM 26.6 °F - 21.2 °F 80% 30.06 in 10.0 mi Calm Calm - N/A   Overcast
8:10 AM 26.6 °F - 21.2 °F 80% 30.07 in 10.0 mi Calm Calm - N/A   Overcast
8:30 AM 28.4 °F 23.3 °F 21.2 °F 74% 30.07 in 10.0 mi WSW 4.6 mph - N/A   Overcast
8:50 AM 28.4 °F - 21.2 °F 74% 30.07 in 10.0 mi Calm Calm - N/A   Overcast
9:10 AM 28.4 °F - 23.0 °F 80% 30.08 in 10.0 mi Calm Calm - N/A   Overcast
9:30 AM 28.4 °F - 23.0 °F 80% 30.08 in 10.0 mi Calm Calm - N/A   Overcast
9:50 AM 30.2 °F - 24.8 °F 80% 30.09 in 10.0 mi Calm Calm - N/A   Overcast
10:10 AM 32.0 °F 27.5 °F 26.6 °F 80% 30.09 in 10.0 mi West 4.6 mph - N/A   Overcast
10:30 AM 32.0 °F - 26.6 °F 80% 30.11 in 10.0 mi Calm Calm - N/A   Overcast
10:50 AM 32.0 °F 28.7 °F 28.4 °F 87% 30.10 in 10.0 mi West 3.5 mph - N/A   Overcast
11:10 AM 35.6 °F 29.2 °F 28.4 °F 75% 30.10 in 10.0 mi WNW 8.1 mph - N/A   Overcast
11:30 AM 37.4 °F 30.8 °F 30.2 °F 75% 30.10 in 10.0 mi WNW 9.2 mph - N/A   Overcast
11:50 AM 39.2 °F 32.0 °F 32.0 °F 75% 30.11 in 10.0 mi NW 11.5 mph - N/A   Overcast
12:10 PM 41.0 °F 32.5 °F 32.0 °F 70% 30.11 in 10.0 mi NNW 17.3 mph 24.2 mph N/A   Overcast
12:30 PM 41.0 °F 32.2 °F 32.0 °F 70% 30.11 in 10.0 mi NNW 18.4 mph 27.6 mph N/A   Overcast
12:50 PM 41.0 °F 32.5 °F 32.0 °F 70% 30.12 in 10.0 mi NNW 17.3 mph 20.7 mph N/A   Overcast
1:10 PM 41.0 °F 32.5 °F 32.0 °F 70% 30.11 in 10.0 mi NNW 17.3 mph 24.2 mph N/A   Overcast
1:30 PM 41.0 °F 33.5 °F 32.0 °F 70% 30.12 in 10.0 mi NNW 13.8 mph - N/A   Overcast
1:50 PM 42.8 °F 36.2 °F 32.0 °F 66% 30.11 in 10.0 mi NNW 12.7 mph 17.3 mph N/A   Overcast
2:10 PM 42.8 °F 34.5 °F 32.0 °F 66% 30.11 in 10.0 mi NNW 18.4 mph 21.9 mph N/A   Overcast
2:30 PM 42.8 °F 34.8 °F 32.0 °F 66% 30.12 in 10.0 mi NNW 17.3 mph 25.3 mph N/A   Mostly Cloudy
2:50 PM 44.6 °F 36.9 °F 32.0 °F 61% 30.13 in 10.0 mi North 18.4 mph - N/A   Mostly Cloudy
3:10 PM 42.8 °F 36.2 °F 32.0 °F 66% 30.14 in 10.0 mi NNW 12.7 mph - N/A   Mostly Cloudy
3:30 PM 42.8 °F 35.8 °F 32.0 °F 66% 30.15 in 10.0 mi NNW 13.8 mph 18.4 mph N/A   Mostly Cloudy
3:50 PM 42.8 °F 37.0 °F 32.0 °F 66% 30.15 in 10.0 mi NNW 10.4 mph - N/A   Mostly Cloudy
4:10 PM 42.8 °F 36.6 °F 32.0 °F 66% 30.15 in 10.0 mi NNW 11.5 mph - N/A   Mostly Cloudy
4:30 PM 42.8 °F 36.6 °F 32.0 °F 66% 30.15 in 10.0 mi NNW 11.5 mph - N/A   Scattered Clouds
4:50 PM 42.8 °F 36.6 °F 32.0 °F 66% 30.16 in 10.0 mi NNW 11.5 mph 21.9 mph N/A   Scattered Clouds
5:10 PM 41.0 °F 34.7 °F 32.0 °F 70% 30.15 in 10.0 mi NW 10.4 mph - N/A   Clear
5:30 PM 39.2 °F 33.6 °F 30.2 °F 70% 30.16 in 10.0 mi NW 8.1 mph - N/A   Clear
5:50 PM 37.4 °F 32.8 °F 30.2 °F 75% 30.16 in 10.0 mi WNW 5.8 mph - N/A   Clear
6:10 PM 35.6 °F 30.7 °F 30.2 °F 81% 30.16 in 10.0 mi NW 5.8 mph - N/A   Clear
6:30 PM 32.0 °F - 28.4 °F 87% 30.16 in 10.0 mi Calm Calm - N/A   Clear
6:50 PM 32.0 °F 28.7 °F 28.4 °F 87% 30.15 in 10.0 mi WSW 3.5 mph - N/A   Clear
7:10 PM 30.2 °F 25.4 °F 26.6 °F 86% 30.15 in 10.0 mi WSW 4.6 mph - N/A   Clear
7:30 PM 32.0 °F 27.5 °F 28.4 °F 87% 30.15 in 10.0 mi WSW 4.6 mph - N/A   Clear
7:50 PM 32.0 °F 26.4 °F 28.4 °F 87% 30.15 in 10.0 mi WSW 5.8 mph - N/A   Clear
8:10 PM 30.2 °F 24.3 °F 26.6 °F 86% 30.15 in 10.0 mi SW 5.8 mph - N/A   Clear
8:30 PM 30.2 °F 26.7 °F 28.4 °F 93% 30.15 in 10.0 mi WSW 3.5 mph - N/A   Clear
8:50 PM 32.0 °F 26.4 °F 28.4 °F 87% 30.15 in 10.0 mi SW 5.8 mph - N/A   Clear
9:10 PM 30.2 °F 25.4 °F 26.6 °F 86% 30.15 in 10.0 mi SW 4.6 mph - N/A   Clear
9:30 PM 30.2 °F - 28.4 °F 93% 30.14 in 10.0 mi Calm Calm - N/A   Clear
9:50 PM 30.2 °F 25.4 °F 28.4 °F 93% 30.14 in 10.0 mi SW 4.6 mph - N/A   Clear
10:10 PM 30.2 °F 24.3 °F 28.4 °F 93% 30.12 in 10.0 mi SW 5.8 mph - N/A   Clear
10:30 PM 32.0 °F - 30.2 °F 93% 30.12 in 10.0 mi Calm Calm - N/A   Clear
10:50 PM 32.0 °F 28.7 °F 28.4 °F 87% 30.11 in 10.0 mi SSW 3.5 mph - N/A   Clear
11:10 PM 28.4 °F 21.2 °F 26.6 °F 93% 30.11 in 10.0 mi SSW 6.9 mph - N/A   Clear
11:30 PM 32.0 °F 27.5 °F 28.4 °F 87% 30.10 in 10.0 mi SSW 4.6 mph - N/A   Clear
11:50 PM 30.2 °F 24.3 °F 28.4 °F 93% 30.09 in 10.0 mi SSW 5.8 mph - N/A   Clear